User: anonymous   Login
Location: Cremona
(45.1170°N, 10.0330°E)
Time: 10:43:08
(UTC+01:00)
Language:

ISS - Orbit

View from above orbital plane
View from above orbital plane
View from above satellite
View from above satellite

Ground track
Ground track

The orbit data is extracted from the following two-line orbital elements,

1 25544U 98067A   19047.53199663  .00016717  00000-0  10270-3 0  9033
2 25544  51.6370 241.2065 0005703  29.6993 330.4482 15.53282107 36509
Epoch (UTC): 16 February 2019 12:46:04
Eccentricity: 0.0005703
inclination: 51.6370°
perigee height: 403 km
apogee height: 411 km
right ascension of ascending node: 241.2065°
argument of perigee: 29.6993°
revolutions per day: 15.53282107
mean anomaly at epoch: 330.4482°
orbit number at epoch: 3650

The dashed part of the orbit path shows where the satellite is in the earth's shadow,  

DLR